This demonstration page uses our WeatherBlox Daily Observations layout. Learn more.

Left ArrowRight Arrow

Hourly Observations for February 27, 2016

Temp ( °F °C ) Dew Point ( °F °C ) Humidity (%) Winds ( mph kmh ) Pressure ( in mb ) Visibility ( mi km ) Precip ( " mm )
12:53 am 00:53 Clear 37 2.8 22 -5.6 54 54 W 8 13 29.75 1008 10 16 0.00 0.00
1:53 am 01:53 Clear 37 2.8 22 -5.6 54 54 WSW 10 17 29.73 1007 10 16 0.00 0.00
2:53 am 02:53 Clear 44 6.7 23 -5 43 43 WSW 8 13 29.70 1006 10 16 0.00 0.00
3:53 am 03:53 Clear 42 5.6 23 -5 47 47 W 8 13 29.67 1005 10 16 0.00 0.00
4:53 am 04:53 Clear 43 6.1 24 -4.4 47 47 W 8 13 29.66 1005 10 16 0.00 0.00
5:53 am 05:53 Cloudy 43 6.1 25 -3.9 49 49 W 13 20 29.68 1005 10 16 0.00 0.00
6:53 am 06:53 Partly Cloudy 41 5 25 -3.9 53 53 W 5 7 29.66 1004 10 16 0.00 0.00
7:53 am 07:53 Sunny 44 6.7 26 -3.3 49 49 SW 15 24 29.63 1003 10 16 0.00 0.00
8:53 am 08:53 Sunny 51 10.6 27 -2.8 39 39 WSW 9 15 29.62 1003 10 16 0.00 0.00
9:53 am 09:53 Mostly Cloudy 54 12.2 28 -2.2 37 37 SW 14 22 29.62 1003 10 16 0.00 0.00
10:53 am 10:53 Cloudy 55 12.8 32 0 42 42 W 7 11 29.64 1004 10 16 0.00 0.00
11:53 am 11:53 Cloudy 56 13.3 34 1.1 44 44 WSW 10 17 29.63 1004 10 16 0.00 0.00
12:53 pm 12:53 Cloudy 55 12.8 34 1.1 45 45 WNW 15 24 29.63 1003 10 16 0.00 0.00
1:53 pm 13:53 Cloudy 53 11.7 33 0.6 47 47 NW 25 41 29.64 1004 10 16 0.00 0.03
2:53 pm 14:53 Cloudy 53 11.7 26 -3.3 35 35 NW 15 24 29.64 1004 10 16 0.00 0.00
3:53 pm 15:53 Cloudy 49 9.4 29 -1.7 46 46 NW 16 26 29.70 1006 10 16 0.00 0.00
4:53 pm 16:53 Cloudy with Light Rain 42 5.6 34 1.1 73 73 WNW 7 11 29.76 1008 10 16 0.00 0.03
5:53 pm 17:53 Cloudy with Light Rain 41 5 36 2.2 82 82 W 6 9 29.79 1009 10 16 0.00 0.03
6:53 pm 18:53 Cloudy with Light Rain 41 5 36 2.2 82 82 NW 13 20 29.85 1011 10 16 0.00 0.03
7:08 pm 19:08 Cloudy with Light Rain 41 5 36 2 81 81 NW 13 20 29.85 1011 10 16 0.00 0.00
7:53 pm 19:53 Cloudy 39 3.9 35 1.7 86 86 NW 15 24 29.90 1012 10 16 0.01 0.25
8:27 pm 20:27 Cloudy with Light Rain 36 2.2 34 1.1 93 93 WNW 13 20 29.97 1015 10 16 0.01 0.25
8:53 pm 20:53 Cloudy 36 2.2 35 1.7 97 97 W 10 17 29.93 1014 10 16 0.01 0.25
9:53 pm 21:53 Cloudy 35 1.7 34 1.1 96 96 WSW 7 11 29.96 1014 10 16 0.00 0.03
10:53 pm 22:53 Clear 34 1.1 32 0 92 92 WSW 9 15 29.97 1015 10 16 0.00 0.00
11:53 pm 23:53 Mostly Cloudy 33 0.6 31 -0.6 92 92 SW 9 15 30.00 1016 10 16 0.00 0.00

Powered by AerisWeather